[[{"header":{"parameterUnit":"m.s-1","parameterCategory":1,"la1":30.2991,"la2":30.254,"lo1":-89.0895,"lo2":-89.0444,"dy":0.0017,"dx":0.0017,"nx":28,"ny":28,"refTime":"2025-03-12T21:00:00:Z","depth":0,"parameterNumber":2,"parameterNumberName":"U-component_of_WINDS"},"data":[0,0,0,0,0,0,0,0,0,0,0,0,0,0,0,0,0,0,0,0,0,0,0,0,0,0,0,0,0,0,0,0,0,0,0,0,0,0,0,0,0,0,0,0,0,0,0,0,0,0,0,0,0,0,0,0,0,0,-1.7215,-1.7215,0,-1.7236,-1.7236,-1.7237,-1.725,-1.7251,-1.7251,-1.7251,-1.7272,-1.7272,-1.7272,0,0,0,0,0,0,0,0,0,0,0,0,0,-1.7183,-1.7184,-1.7215,-1.7215,-1.7215,-1.7236,-1.7236,-1.7237,-1.725,-1.7251,-1.7251,-1.7251,-1.7271,-1.7272,-1.7273,0,0,0,0,0,0,0,0,0,0,0,0,0,-1.72,-1.7184,-1.7215,-1.7225,-1.7226,-1.7236,-1.7236,-1.7237,-1.725,-1.7251,-1.7251,-1.7251,-1.7271,-1.7272,-1.7273,-1.7274,0,0,-1.7275,-1.7275,0,0,0,0,0,0,0,0,-1.7199,-1.7201,-1.7223,-1.7224,-1.7225,-1.7241,-1.7233,-1.7249,-1.725,-1.7241,-1.7251,-1.7251,-1.7261,-1.7263,-1.7266,-1.7275,-1.7276,-1.7275,-1.7275,-1.7276,-1.7276,0,0,0,0,0,0,0,-1.7198,-1.72,-1.7223,-1.7223,-1.7224,-1.7227,-1.723,-1.7236,-1.725,-1.7242,-1.7243,-1.7245,-1.7262,-1.7266,-1.7267,-1.7277,-1.7275,-1.7275,-1.7276,-1.7276,-1.7287,-1.7287,0,0,0,0,0,0,-1.7195,-1.7199,-1.7222,-1.7224,-1.7212,-1.7228,-1.7231,-1.7236,-1.725,-1.7252,-1.7245,-1.7246,-1.7264,-1.7266,-1.7268,-1.727,-1.7276,-1.7276,-1.7277,-1.7287,-1.7287,-1.7287,0,0,0,0,0,0,-1.7195,-1.7197,-1.7222,-1.7212,-1.7215,-1.7228,-1.7234,-1.7236,-1.724,-1.7253,-1.7255,-1.7247,-1.7265,-1.7267,-1.7273,-1.7271,-1.7277,-1.7277,-1.7288,-1.7287,-1.7287,-1.7276,0,0,0,0,0,0,-1.7194,-1.7197,-1.7198,-1.7212,-1.7216,-1.7227,-1.7234,-1.7236,-1.7241,-1.7242,-1.7255,-1.7257,-1.7265,-1.7271,-1.7273,-1.7272,-1.7278,-1.7288,-1.7287,-1.7287,-1.7276,-1.7275,-1.7274,0,0,0,0,0,-1.7192,-1.7194,-1.7198,-1.7201,-1.7218,-1.7226,-1.7229,-1.7238,-1.7241,-1.7242,-1.725,-1.7256,-1.7271,-1.7272,-1.7274,-1.7273,-1.7288,-1.7287,-1.7287,-1.7277,-1.7275,-1.7274,0,0,0,0,0,0,-1.718,-1.7196,-1.7201,-1.7207,-1.7215,-1.7229,-1.7231,-1.7237,-1.7244,-1.7245,-1.7256,-1.7258,-1.7263,-1.7269,-1.7269,-1.7275,-1.728,-1.728,-1.7271,-1.727,-1.7269,-1.7268,-1.7278,0,0,0,0,0,-1.7178,-1.7184,-1.7198,-1.7202,-1.7206,-1.7217,-1.7222,-1.7228,-1.7237,-1.7241,-1.7249,-1.7257,-1.7263,-1.7267,-1.7274,-1.7277,-1.728,-1.7278,-1.7277,-1.7276,-1.7276,-1.7277,-1.7276,-1.7286,-1.7286,-1.7286,0,0,-1.7174,-1.7184,-1.7187,-1.72,-1.7207,-1.7213,-1.722,-1.7226,-1.723,-1.7241,-1.7247,-1.7254,-1.7263,-1.7267,-1.727,-1.7273,-1.7273,-1.7275,-1.7275,-1.7275,-1.7277,-1.7276,-1.7275,-1.7286,-1.7286,-1.7286,0,0,-1.717,-1.7178,-1.7182,-1.7189,-1.7199,-1.7207,-1.7208,-1.722,-1.7225,-1.7231,-1.7239,-1.7244,-1.7255,-1.7261,-1.7265,-1.7262,-1.7268,-1.7264,-1.7258,-1.726,-1.7259,-1.7258,-1.7256,-1.7256,-1.7264,-1.7264,-1.7264,0,-1.7163,-1.7173,-1.7183,-1.7188,-1.7193,-1.7203,-1.7207,-1.7213,-1.7225,-1.7228,-1.7231,-1.7244,-1.7251,-1.7257,-1.7256,-1.726,-1.726,-1.7262,-1.7258,-1.7258,-1.7257,-1.7256,-1.7255,-1.7263,-1.7263,-1.7263,-1.7263,0,-1.7164,-1.717,-1.7172,-1.7183,-1.7189,-1.7193,-1.7203,-1.7207,-1.7213,-1.722,-1.7225,-1.7234,-1.7242,-1.7244,-1.725,-1.725,-1.7252,-1.7256,-1.7261,-1.7255,-1.7254,-1.7254,-1.7262,-1.7262,-1.7263,-1.7263,0,0,-1.7153,-1.7169,-1.717,-1.7175,-1.7187,-1.7192,-1.7196,-1.7204,-1.7207,-1.7214,-1.7218,-1.7226,-1.7231,-1.7236,-1.7242,-1.7243,-1.7239,-1.7248,-1.7248,-1.7245,-1.7239,-1.7235,-1.7235,-1.7243,-1.7243,-1.7243,-1.7238,0,-1.715,-1.7159,-1.7168,-1.7173,-1.7178,-1.7188,-1.7191,-1.7199,-1.7205,-1.721,-1.7217,-1.7222,-1.7228,-1.7231,-1.7232,-1.7239,-1.7238,-1.724,-1.7246,-1.7246,-1.7243,-1.7234,-1.723,-1.7226,-1.7238,-1.7238,-1.7238,0,-1.7148,-1.7155,-1.7161,-1.7172,-1.7174,-1.7177,-1.7185,-1.719,-1.7198,-1.7202,-1.7208,-1.7214,-1.7219,-1.7223,-1.7228,-1.7229,-1.7232,-1.7236,-1.7236,-1.7237,-1.7241,-1.7234,-1.7224,-1.7223,-1.7237,-1.7237,-1.7237,0,-1.7139,-1.715,-1.7155,-1.7158,-1.7171,-1.7173,-1.7178,-1.7187,-1.7191,-1.7197,-1.72,-1.7206,-1.721,-1.7215,-1.7223,-1.7225,-1.7227,-1.7232,-1.723,-1.723,-1.723,-1.723,-1.722,-1.7233,-1.7233,-1.7233,-1.7233,0,-1.7134,-1.7137,-1.715,-1.7153,-1.7157,-1.7166,-1.7169,-1.7175,-1.7182,-1.7186,-1.7194,-1.7198,-1.7208,-1.7212,-1.7219,-1.7222,-1.7223,-1.7227,-1.7228,-1.7226,-1.7225,-1.7228,-1.7228,-1.7232,-1.7232,-1.7233,-1.7233,0,-1.7125,-1.7134,-1.7139,-1.7151,-1.7153,-1.7155,-1.7165,-1.7167,-1.7174,-1.7178,-1.718,-1.719,-1.7195,-1.7204,-1.7211,-1.7216,-1.7217,-1.722,-1.7215,-1.7216,-1.7213,-1.7213,-1.7204,-1.7203,-1.7216,-1.7216,-1.7216,0,-1.7121,-1.7124,-1.7135,-1.7138,-1.7143,-1.7148,-1.7152,-1.7162,-1.7165,-1.7174,-1.7175,-1.7181,-1.7187,-1.7194,-1.7202,-1.7208,-1.7211,-1.7207,-1.7211,-1.7209,-1.721,-1.7209,-1.7209,-1.7206,-1.7206,-1.7206,-1.7206,0,-1.7114,-1.7118,-1.7124,-1.7131,-1.7135,-1.7141,-1.7147,-1.7149,-1.7159,-1.7163,-1.7169,-1.7172,-1.718,-1.7186,-1.7192,-1.7197,-1.7203,-1.7204,-1.7204,-1.7201,-1.7198,-1.7199,-1.7211,-1.7204,-1.7204,-1.7204,-1.7204,-1.7205,-1.7108,-1.711,-1.7118,-1.7124,-1.7129,-1.7134,-1.7137,-1.7144,-1.7148,-1.7155,-1.716,-1.7165,-1.7172,-1.7182,-1.7186,-1.719,-1.7192,-1.7192,-1.7192,-1.7192,-1.719,-1.7197,-1.7191,-1.7191,-1.7191,-1.7191,-1.7191,0,-1.71,-1.7106,-1.7111,-1.7119,-1.7123,-1.7128,-1.7135,-1.7138,-1.7142,-1.7148,-1.7153,-1.7159,-1.7164,-1.7171,-1.7177,-1.7178,-1.7181,-1.7179,-1.7179,-1.718,-1.7188,-1.7187,-1.7177,-1.7177,-1.7177,-1.7177,-1.7177,-1.7177,-1.7097,-1.7101,-1.7106,-1.7112,-1.7117,-1.7122,-1.7125,-1.713,-1.7135,-1.7141,-1.7145,-1.715,-1.7156,-1.7162,-1.7167,-1.7169,-1.717,-1.7168,-1.717,-1.7178,-1.7179,-1.7181,-1.718,-1.7168,-1.7168,-1.7162,-1.7162,-1.7162]},{"header":{"parameterUnit":"m.s-1","parameterCategory":1,"la1":30.2991,"la2":30.254,"lo1":-89.0895,"lo2":-89.0444,"dy":0.0017,"dx":0.0017,"nx":28,"ny":28,"refTime":"2025-03-12T21:00:00:Z","depth":0,"parameterNumber":3,"parameterNumberName":"V-component_of_WINDS"},"data":[0,0,0,0,0,0,0,0,0,0,0,0,0,0,0,0,0,0,0,0,0,0,0,0,0,0,0,0,0,0,0,0,0,0,0,0,0,0,0,0,0,0,0,0,0,0,0,0,0,0,0,0,0,0,0,0,0,0,2.88,2.8801,0,2.8929,2.8931,2.8932,2.8958,2.8957,2.8956,2.8955,2.9091,2.9096,2.91,0,0,0,0,0,0,0,0,0,0,0,0,0,2.8579,2.8583,2.88,2.8801,2.8803,2.8929,2.8931,2.8933,2.8958,2.8957,2.8955,2.8954,2.909,2.9095,2.9101,0,0,0,0,0,0,0,0,0,0,0,0,0,2.8689,2.8584,2.88,2.8831,2.8835,2.8929,2.8931,2.8933,2.8958,2.8957,2.8955,2.8954,2.9088,2.9095,2.9102,2.9175,0,0,2.9123,2.9126,0,0,0,0,0,0,0,0,2.8682,2.8697,2.8824,2.8829,2.8833,2.8926,2.8903,2.9014,2.8958,2.8911,2.8955,2.8953,2.9038,2.9049,2.9077,2.9181,2.9187,2.9123,2.9127,2.913,2.9132,0,0,0,0,0,0,0,2.8675,2.8691,2.8851,2.8826,2.8832,2.884,2.8854,2.8925,2.8982,2.8915,2.8917,2.8932,2.904,2.907,2.908,2.9189,2.9123,2.9129,2.9133,2.9136,2.9364,2.9366,0,0,0,0,0,0,2.8661,2.8685,2.8847,2.8855,2.8752,2.8845,2.8861,2.8898,2.8981,2.8992,2.8933,2.8933,2.9059,2.9072,2.9085,2.9178,2.913,2.9137,2.9141,2.9362,2.9365,2.9367,0,0,0,0,0,0,2.8656,2.8675,2.8842,2.8771,2.8792,2.885,2.8892,2.8901,2.8931,2.8995,2.9005,2.8953,2.9058,2.9075,2.9153,2.9183,2.914,2.9146,2.936,2.9363,2.9366,2.9365,0,0,0,0,0,0,2.865,2.8673,2.87,2.8771,2.8796,2.8906,2.8894,2.8905,2.8942,2.8943,2.9016,2.9027,2.9058,2.9142,2.916,2.9192,2.9152,2.9358,2.9362,2.9365,2.9362,2.9367,2.9371,0,0,0,0,0,2.8642,2.8695,2.8702,2.8721,2.8831,2.8908,2.8922,2.8956,2.8944,2.8974,2.9015,2.9024,2.9177,2.915,2.917,2.9205,2.9356,2.936,2.9365,2.936,2.9366,2.9371,0,0,0,0,0,0,2.8628,2.8705,2.8713,2.8791,2.8842,2.8912,2.8949,2.8961,2.9018,2.9017,2.9058,2.9074,2.915,2.9185,2.9154,2.9282,2.9266,2.9275,2.9256,2.9262,2.9267,2.9257,2.9157,0,0,0,0,0,2.8634,2.8688,2.8753,2.8815,2.8841,2.889,2.8925,2.8947,2.9003,2.9025,2.9072,2.9127,2.9188,2.9227,2.9286,2.9367,2.9385,2.9401,2.9406,2.9409,2.9417,2.9465,2.9474,2.9381,2.9381,2.9381,0,0,2.8647,2.8696,2.8727,2.8814,2.8857,2.8914,2.8909,2.8969,2.9013,2.9035,2.9111,2.9147,2.9212,2.9292,2.933,2.9324,2.9446,2.9415,2.9417,2.9423,2.9471,2.9479,2.9487,2.9384,2.9384,2.9383,0,0,2.87,2.8741,2.8799,2.8842,2.8906,2.8939,2.8952,2.9021,2.9045,2.9122,2.9141,2.9194,2.9297,2.9343,2.938,2.9452,2.9464,2.947,2.9494,2.9541,2.9549,2.9555,2.9583,2.9593,2.9477,2.9477,2.9477,0,2.8708,2.8794,2.8827,2.8887,2.8926,2.8947,2.9007,2.9048,2.9128,2.9156,2.9147,2.9278,2.9323,2.9416,2.9433,2.9462,2.9481,2.9462,2.9544,2.9552,2.9558,2.9586,2.9596,2.9477,2.9477,2.9477,2.9477,0,2.8802,2.8861,2.89,2.8977,2.902,2.9079,2.9124,2.9164,2.9182,2.9216,2.9296,2.9351,2.9422,2.9446,2.9464,2.9542,2.9537,2.9536,2.9521,2.9567,2.9594,2.9604,2.9478,2.9478,2.9478,2.9478,0,0,2.885,2.8945,2.8959,2.8995,2.9068,2.9116,2.9177,2.9246,2.9281,2.9336,2.939,2.9478,2.9478,2.952,2.9544,2.9585,2.9642,2.958,2.9582,2.9591,2.9734,2.9735,2.9746,2.965,2.9652,2.9653,2.9729,0,2.8914,2.9022,2.9055,2.9148,2.9204,2.9226,2.928,2.9332,2.9366,2.9421,2.9459,2.9521,2.9516,2.9542,2.9583,2.9626,2.9671,2.9621,2.9703,2.9706,2.9688,2.976,2.9761,2.983,2.9739,2.9741,2.9742,0,2.9002,2.9058,2.9156,2.9224,2.9249,2.9296,2.9363,2.9414,2.9475,2.9497,2.9544,2.9565,2.9633,2.9614,2.9709,2.9674,2.971,2.9737,2.974,2.975,2.9728,2.9774,2.9852,2.9863,2.9759,2.9757,2.9756,0,2.903,2.913,2.9202,2.9232,2.9312,2.9346,2.9381,2.9439,2.948,2.9539,2.9566,2.9632,2.9669,2.9722,2.9761,2.9743,2.9854,2.9838,2.9877,2.9876,2.99,2.9899,2.9987,2.992,2.992,2.992,2.992,0,2.9098,2.9158,2.9216,2.926,2.9329,2.9366,2.9434,2.947,2.9522,2.9576,2.9599,2.965,2.9698,2.9756,2.9788,2.9863,2.9879,2.9901,2.9909,2.99,2.9898,2.9925,2.9922,2.9923,2.9922,2.9922,2.9921,0,2.9142,2.9182,2.9263,2.9332,2.9351,2.9398,2.9459,2.9504,2.9539,2.9607,2.9625,2.9681,2.975,2.9795,2.9883,2.9905,2.9988,2.9994,2.9967,2.9972,3.0009,3.0006,3.012,3.0139,3.0057,3.0058,3.0059,0,2.9183,2.923,2.9304,2.934,2.9376,2.9435,2.9476,2.9515,2.9558,2.9631,2.9668,2.9738,2.9797,2.9907,2.9957,3.0025,3.0034,3.007,3.0045,3.0035,3.0038,3.0035,3.0041,3.0074,3.0075,3.0075,3.0076,0,2.9254,2.9272,2.9329,2.9394,2.9442,2.9495,2.9549,2.9578,2.9628,2.9674,2.9745,2.979,2.988,2.9951,3.0024,3.0063,3.0079,3.0083,3.0096,3.0088,3.0072,3.0084,2.9981,3.008,3.008,3.008,3.0079,3.0079,2.9299,2.9342,2.9401,2.9465,2.9509,2.9559,2.9605,2.9646,2.9705,2.978,2.9801,2.9875,2.9937,3.0036,3.0077,3.0137,3.0133,3.0151,3.0157,3.0161,3.0163,3.006,3.015,3.015,3.015,3.015,3.015,0,2.9373,2.9412,2.947,2.9544,2.9595,2.9603,2.9663,2.9706,2.977,2.9825,2.9882,2.9965,3.0034,3.0089,3.0161,3.0199,3.0208,3.0217,3.0215,3.0225,3.0161,3.0143,3.0208,3.0208,3.0208,3.0208,3.0208,3.0208,2.9417,2.9491,2.9516,2.9613,2.9653,2.9724,2.9758,2.9805,2.985,2.994,2.9997,3.0032,3.0089,3.0165,3.0229,3.0244,3.0271,3.0278,3.0295,3.0235,3.0229,3.0223,3.0206,3.0283,3.0283,3.0354,3.0354,3.0355]}]]